IRIDIUM 148 (43255 NORAD) Tracking and Keplerian Element Data

This shows tracking and keplerian element data for the satellite.

Feedback or suggestion? Click here.




ElementValue
Catalog43255
NameIRIDIUM 148
Epoch Orbit35873
Epoch Day34.78527186
Epoch Year2025
RAAN138.8321
Inclination86.4014
Eccentricity0.0002196
Argument of Perigee91.3553
Mean Anonmoly268.7895
Mean Motion14.34218233
Decay Rate6.9E-06
L11 43255U 18030G 25034.78527186 .00000690 00000+0 23930-3 0 9993
L22 43255 86.4014 138.8321 0002196 91.3553 268.7895 14.34218233358736



Live tracking and technical data element details for IRIDIUM 148 (NORAD 43255). IRIDIUM 148 can be tracked NOW for your location showing map with azimuth and elevation plus other details from your city location.







IsCatalogInMostPopularTable: catalog: 43255, numindb: 444
Update: records affected: 1



GetName: 43255 IRIDIUM 148

Hit Count: updated at: Thu, 15 May 2025 11:01:21 GMT